STARLINK-34397 (64356 NORAD) Tracking and Keplerian Element Data

This shows tracking and keplerian element data for the satellite.

Feedback or suggestion? Click here.




ElementValue
Catalog64356
NameSTARLINK-34397
Epoch Orbit2875
Epoch Day354.08300414
Epoch Year2025
RAAN235.3282
Inclination69.9997
Eccentricity0.0002922
Argument of Perigee278.6178
Mean Anonmoly81.465
Mean Motion14.98325715
Decay Rate4.23E-05
L11 64356U 25126N 25354.08300414 .00004230 00000+0 36212-3 0 9994
L22 64356 69.9997 235.3282 0002922 278.6178 81.4650 14.98325715 28755



Live tracking and technical data element details for STARLINK-34397 (NORAD 64356). STARLINK-34397 can be tracked NOW for your location showing map with azimuth and elevation plus other details from your city location.







IsCatalogInMostPopularTable: catalog: 64356, numindb: 6
Update: records affected: 1



GetName: 64356 STARLINK-34397

Hit Count: updated at: Tue, 21 Apr 2026 19:47:55 GMT